CW9928 Weather Reports


Display with metric or nautical units.
time (UTC)temp
F
wind
direction
speed
MPH
gust
MPH
rain 1hr
in
rain 24hr
in
rain mn
in
humidity
%
barometer
mb
20260901225004 82 283 0.0 0.0 0.00 0.00 0.00 82 1014.0
20260901224548 82 283 0.0 1.0 0.00 0.00 0.00 82 1013.9
20260901224027 82 283 0.0 1.0 0.00 0.00 0.00 82 1014.0
20260901223508 82 283 0.0 1.0 0.00 0.00 0.00 82 1014.0
20260901223055 82 283 0.0 0.0 0.00 0.00 0.00 82 1014.1
20260901222531 83 283 0.0 0.0 0.00 0.00 0.00 81 1014.0
20260901222011 83 283 0.0 0.0 0.00 0.00 0.00 81 1014.1
20260901221608 83 283 0.0 0.0 0.00 0.00 0.00 80 1014.2
20260901221036 83 283 0.0 0.0 0.00 0.00 0.00 80 1014.2
20260901220513 83 283 0.0 2.0 0.00 0.00 0.00 80 1014.1
20260901220054 83 283 0.0 4.0 0.00 0.00 0.00 80 1013.9
20260901215516 83 283 1.0 4.0 0.00 0.00 0.00 79 1013.9
20260901215100 83 44 1.0 4.0 0.00 0.00 0.00 79 1013.9
20260901214541 83 51 0.0 2.0 0.00 0.00 0.00 80 1013.9
20260901214020 83 51 0.0 4.0 0.00 0.00 0.00 79 1014.0
20260901213604 83 51 0.0 4.0 0.00 0.00 0.00 78 1014.0
20260901213045 83 51 0.0 4.0 0.00 0.00 0.00 78 1014.0
20260901212524 83 51 0.0 2.0 0.00 0.00 0.00 79 1014.0
20260901212004 83 51 0.0 0.0 0.00 0.00 0.00 79 1013.9
20260901211548 83 51 0.0 0.0 0.00 0.00 0.00 80 1013.9
20260901211028 83 51 0.0 4.0 0.00 0.00 0.00 80 1013.9
20260901210507 83 51 0.0 4.0 0.00 0.00 0.00 79 1013.9
20260901210052 83 51 0.0 2.0 0.00 0.00 0.00 79 1013.9
20260901205514 83 51 0.0 2.0 0.00 0.00 0.00 79 1013.8
20260901205058 83 51 0.0 0.0 0.00 0.00 0.00 81 1013.7
20260901204539 83 51 0.0 0.0 0.00 0.00 0.00 80 1013.8
20260901204018 83 51 0.0 0.0 0.00 0.00 0.00 80 1013.9
20260901203602 83 51 0.0 0.0 0.00 0.00 0.00 81 1013.9
20260901203044 82 51 0.0 0.0 0.00 0.00 0.00 80 1014.0
20260901202521 82 51 0.0 0.0 0.00 0.00 0.00 81 1014.1
20260901202003 82 51 0.0 1.0 0.00 0.00 0.00 80 1014.2
20260901201546 82 51 0.0 1.0 0.00 0.00 0.00 79 1014.2
20260901201026 82 51 0.0 1.0 0.00 0.01 0.00 79 1014.2
20260901200505 82 51 0.0 2.0 0.00 0.01 0.00 78 1014.2
20260901200103 83 51 0.0 2.0 0.00 0.01 0.00 78 1014.3
20260901195512 83 52 0.0 2.0 0.00 0.01 0.00 79 1014.3
20260901195058 82 52 0.0 4.0 0.00 0.01 0.00 79 1014.3
20260901194551 82 51 0.0 3.0 0.00 0.01 0.00 79 1014.3
20260901194016 82 51 0.0 2.0 0.00 0.01 0.00 78 1014.2
20260901193600 82 51 0.0 2.0 0.00 0.01 0.00 77 1014.3
20260901193039 83 51 0.0 2.0 0.00 0.01 0.00 78 1014.4
20260901192522 82 54 0.0 2.0 0.00 0.01 0.00 78 1014.4
20260901192104 82 54 0.0 5.0 0.00 0.01 0.00 79 1014.3
20260901191543 81 54 1.0 5.0 0.00 0.01 0.00 81 1014.4
20260901191027 81 54 0.0 5.0 0.00 0.08 0.00 80 1014.3
20260901190504 80 54 0.0 5.0 0.00 0.08 0.00 80 1014.3
20260901190101 80 54 0.0 2.0 0.00 0.08 0.00 80 1014.4
20260901185510 80 54 0.0 4.0 0.00 0.08 0.00 81 1014.4
20260901185053 80 54 0.0 4.0 0.00 0.08 0.00 82 1014.5
20260901184534 79 53 0.0 5.0 0.00 0.08 0.00 82 1014.6
20260901184014 79 52 2.0 5.0 0.00 0.08 0.00 82 1014.6
20260901183557 78 52 0.0 5.0 0.00 0.08 0.00 83 1014.7
20260901183042 78 51 2.0 5.0 0.00 0.08 0.00 83 1014.6
20260901182519 78 51 0.0 0.0 0.00 0.08 0.00 84 1014.7
20260901182102 78 51 0.0 0.0 0.00 0.08 0.00 84 1014.8
20260901181541 78 51 0.0 2.0 0.00 0.08 0.00 83 1014.8
20260901181021 78 51 0.0 2.0 0.00 0.08 0.00 83 1014.7
20260901180502 78 51 0.0 5.0 0.00 0.08 0.00 83 1014.9
20260901180046 78 51 0.0 5.0 0.00 0.08 0.00 83 1014.9
20260901175508 78 65 0.0 6.0 0.00 0.08 0.00 82 1014.8
20260901175051 78 44 0.0 2.0 0.00 0.08 0.00 82 1014.6
20260901174535 78 56 0.0 2.0 0.00 0.08 0.00 82 1014.5
20260901174015 78 57 0.0 2.0 0.00 0.08 0.00 81 1014.4
20260901173555 78 57 0.0 6.0 0.00 0.08 0.00 81 1014.4
20260901173037 79 225 0.0 4.0 0.00 0.08 0.00 81 1014.4
20260901172514 79 209 0.0 6.0 0.00 0.08 0.00 80 1014.4
20260901172059 79 64 1.0 6.0 0.00 0.08 0.00 81 1014.3
20260901171539 79 290 0.0 5.0 0.00 0.08 0.00 81 1014.2
20260901171018 79 266 0.0 7.0 0.00 0.09 0.00 82 1014.1
20260901170602 79 49 1.0 7.0 0.00 0.09 0.00 81 1014.1
20260901170127 79 7 0.0 5.0 0.00 0.09 0.00 81 1014.1
20260901165504 80 59 0.0 7.0 0.00 0.09 0.00 81 1014.2
20260901165050 80 61 1.0 7.0 0.00 0.09 0.00 80 1014.2
20260901164529 80 296 0.0 6.0 0.00 0.09 0.00 81 1014.1
20260901164009 79 73 1.0 6.0 0.00 0.09 0.00 81 1014.1
20260901163553 79 50 0.0 6.0 0.00 0.09 0.00 81 1014.1
20260901163033 80 50 1.0 8.0 0.00 0.09 0.00 80 1014.2
20260901162512 80 293 0.0 5.0 0.00 0.09 0.00 80 1014.2
20260901162056 80 308 0.0 4.0 0.00 0.09 0.00 80 1014.2
20260901161537 80 308 0.0 4.0 0.00 0.09 0.00 81 1014.1
20260901161017 80 308 0.0 7.0 0.00 0.09 0.00 81 1014.1
20260901160600 80 296 1.0 7.0 0.00 0.09 0.00 80 1014.1
20260901160041 80 57 0.0 5.0 0.00 0.09 0.00 81 1014.1
20260901155502 79 293 1.0 6.0 0.00 0.09 0.00 81 1014.1
20260901155047 79 294 1.0 6.0 0.00 0.09 0.00 80 1014.0
20260901154526 79 296 0.0 4.0 0.00 0.09 0.00 80 1014.1
20260901154007 79 297 0.0 4.0 0.00 0.09 0.00 80 1014.1
20260901153551 79 297 0.0 4.0 0.00 0.09 0.00 81 1014.0
20260901153032 79 297 0.0 2.0 0.00 0.09 0.00 82 1014.0
20260901152510 79 297 0.0 2.0 0.00 0.09 0.00 82 1014.1
20260901152054 78 298 0.0 4.0 0.00 0.09 0.00 82 1014.0
20260901151535 78 298 0.0 5.0 0.00 0.09 0.00 83 1014.1
20260901151015 78 298 0.0 5.0 0.00 0.10 0.00 82 1014.1
20260901150558 78 304 0.0 4.0 0.00 0.10 0.00 82 1014.1
20260901150039 78 304 0.0 5.0 0.00 0.10 0.00 82 1014.0
20260901145607 78 304 0.0 5.0 0.00 0.10 0.00 83 1014.0
20260901145044 77 293 0.0 4.0 0.00 0.10 0.00 83 1013.9
20260901144524 77 310 0.0 2.0 0.00 0.10 0.00 84 1013.9
20260901144004 77 310 0.0 2.0 0.00 0.10 0.00 85 1013.9
20260901143548 77 310 0.0 2.0 0.00 0.10 0.00 85 1013.9
20260901143028 77 310 0.0 2.0 0.00 0.10 0.00 84 1013.7
20260901142509 77 310 0.0 4.0 0.00 0.10 0.00 85 1013.6
20260901142054 76 310 0.0 4.0 0.00 0.10 0.00 84 1013.7
20260901141539 76 310 0.0 4.0 0.00 0.10 0.00 85 1013.7
20260901141013 76 310 0.0 2.0 0.00 0.12 0.00 85 1013.9
20260901140556 76 311 0.0 6.0 0.00 0.12 0.00 85 1013.9
20260901140022 76 311 1.0 6.0 0.00 0.12 0.00 86 1014.0
20260901135603 76 339 0.0 4.0 0.00 0.12 0.00 86 1013.9
20260901135042 76 23 0.0 5.0 0.00 0.12 0.00 86 1014.0
20260901134523 76 296 0.0 5.0 0.00 0.12 0.00 87 1013.8
20260901134002 75 295 0.0 5.0 0.00 0.12 0.00 87 1013.9
20260901133547 75 295 1.0 5.0 0.00 0.12 0.00 87 1013.9
20260901133026 75 295 0.0 7.0 0.00 0.12 0.00 88 1014.0
20260901132509 75 295 0.0 7.0 0.00 0.12 0.00 89 1014.0
20260901132050 75 288 0.0 4.0 0.00 0.12 0.00 89 1013.9
20260901131536 75 287 0.0 4.0 0.00 0.12 0.00 90 1014.1
20260901131007 74 287 0.0 4.0 0.00 0.22 0.00 90 1014.2
20260901130551 74 276 0.0 4.0 0.00 0.22 0.00 91 1014.3
20260901130011 74 272 0.0 6.0 0.00 0.22 0.00 91 1014.2
20260901125555 74 271 0.0 6.0 0.00 0.22 0.00 92 1014.3
20260901125038 73 227 0.0 0.0 0.00 0.22 0.00 93 1014.3
20260901124516 73 225 0.0 0.0 0.00 0.22 0.00 93 1014.3
20260901124101 73 225 0.0 0.0 0.00 0.22 0.00 93 1014.2
20260901123539 73 225 0.0 0.0 0.00 0.22 0.00 94 1014.2
20260901123019 72 225 0.0 0.0 0.00 0.22 0.00 94 1014.2
20260901122604 72 225 0.0 0.0 0.00 0.22 0.00 94 1014.2
20260901122043 72 225 0.0 0.0 0.00 0.22 0.00 94 1014.1
20260901121524 72 225 0.0 0.0 0.00 0.22 0.00 94 1014.2
20260901121003 72 225 0.0 0.0 0.00 0.22 0.00 94 1014.1
20260901120549 72 225 0.0 0.0 0.00 0.22 0.00 94 1014.1
20260901120009 72 225 0.0 0.0 0.00 0.22 0.00 93 1014.0
20260901115553 72 225 0.0 0.0 0.00 0.22 0.00 93 1013.8
20260901115034 72 225 0.0 0.0 0.00 0.22 0.00 93 1013.6
20260901114513 72 225 0.0 0.0 0.00 0.22 0.00 93 1013.7
20260901114057 72 225 0.0 0.0 0.00 0.22 0.00 93 1013.9
20260901113537 72 225 0.0 0.0 0.00 0.22 0.00 93 1013.7
20260901113017 72 225 0.0 0.0 0.00 0.22 0.00 92 1013.7
20260901112601 72 225 0.0 0.0 0.00 0.22 0.00 92 1013.7
20260901112043 72 225 0.0 0.0 0.00 0.22 0.00 92 1013.6
20260901111521 72 225 0.0 0.0 0.00 0.22 0.00 92 1013.6
20260901111002 72 225 0.0 0.0 0.00 0.23 0.00 92 1013.5
20260901110545 72 225 0.0 0.0 0.00 0.23 0.00 92 1013.5
20260901110007 72 225 0.0 0.0 0.00 0.23 0.00 91 1013.4
20260901105551 72 225 0.0 0.0 0.00 0.23 0.00 91 1013.4
20260901105031 73 225 0.0 0.0 0.00 0.23 0.00 91 1013.5
20260901104520 73 225 0.0 0.0 0.00 0.23 0.00 91 1013.5
20260901104055 73 225 0.0 0.0 0.00 0.23 0.00 91 1013.5
20260901103534 73 225 0.0 0.0 0.00 0.23 0.00 90 1013.4
20260901103015 73 225 0.0 0.0 0.00 0.23 0.00 90 1013.4
20260901102559 73 225 0.0 0.0 0.00 0.23 0.00 90 1013.4
20260901102039 73 225 0.0 0.0 0.00 0.23 0.00 90 1013.3
20260901101519 73 225 0.0 0.0 0.00 0.23 0.00 89 1013.4
20260901101105 73 225 0.0 0.0 0.00 0.23 0.00 89 1013.3
20260901100545 73 225 0.0 0.0 0.00 0.23 0.00 89 1013.2
20260901100006 74 225 0.0 0.0 0.00 0.23 0.00 89 1013.3
20260901095548 74 225 0.0 0.0 0.00 0.23 0.00 89 1013.2
20260901095028 74 225 0.0 0.0 0.00 0.23 0.00 88 1013.2
20260901094508 74 225 0.0 0.0 0.00 0.23 0.00 88 1013.1
20260901094052 74 225 0.0 0.0 0.00 0.23 0.00 88 1013.1
20260901093532 74 225 0.0 0.0 0.00 0.23 0.00 88 1013.1
20260901093012 74 225 0.0 0.0 0.00 0.23 0.00 88 1013.0
20260901092559 74 225 0.0 0.0 0.00 0.23 0.00 88 1013.0
20260901092039 74 225 0.0 0.0 0.00 0.23 0.00 88 1013.0
20260901091516 74 225 0.0 0.0 0.00 0.23 0.00 88 1013.0
20260901091059 74 225 0.0 0.0 0.00 0.24 0.00 88 1012.9
20260901090539 74 225 0.0 4.0 0.00 0.24 0.00 88 1012.9
20260901090006 74 225 0.0 0.0 0.00 0.24 0.00 88 1012.9
20260901085546 74 225 0.0 0.0 0.00 0.24 0.00 88 1012.9
20260901085026 74 225 0.0 5.0 0.00 0.24 0.00 88 1012.9
20260901084507 74 225 0.0 7.0 0.00 0.24 0.00 87 1012.8
20260901084050 74 243 2.0 7.0 0.00 0.24 0.00 88 1012.7
20260901083531 74 227 0.0 5.0 0.00 0.24 0.00 88 1012.8
20260901083026 74 233 0.0 8.0 0.00 0.24 0.00 87 1012.8
20260901082554 74 233 0.0 8.0 0.00 0.24 0.00 87 1012.7
20260901082035 74 239 1.0 8.0 0.00 0.24 0.00 87 1012.6
20260901081517 74 260 0.0 7.0 0.00 0.24 0.00 87 1012.6
20260901081058 74 237 2.0 6.0 0.00 0.24 0.00 88 1012.6
20260901080538 74 233 0.0 6.0 0.00 0.24 0.00 88 1012.6
20260901080122 74 233 0.0 10.0 0.00 0.24 0.00 89 1012.7
20260901075543 74 260 2.0 10.0 0.00 0.24 0.00 89 1012.7
20260901075025 73 242 1.0 5.0 0.00 0.24 0.00 90 1012.8
20260901074513 73 235 0.0 9.0 0.00 0.24 0.00 91 1012.8
20260901074049 73 235 0.0 9.0 0.00 0.24 0.00 91 1012.7
20260901073529 73 329 0.0 4.0 0.00 0.24 0.00 92 1012.8
20260901073023 72 329 1.0 4.0 0.00 0.24 0.00 93 1012.9
20260901072552 72 241 0.0 4.0 0.00 0.24 0.00 93 1012.8
20260901072034 72 242 0.0 5.0 0.00 0.24 0.00 94 1013.0
20260901071512 72 242 0.0 5.0 0.00 0.24 0.00 94 1013.1
20260901071055 72 253 0.0 1.0 0.00 0.28 0.00 94 1013.1
20260901070536 72 253 0.0 4.0 0.00 0.28 0.00 94 1013.1
20260901070121 72 253 0.0 5.0 0.00 0.28 0.00 94 1013.2
20260901065542 72 253 0.0 5.0 0.00 0.28 0.00 95 1013.3
20260901065024 72 253 0.0 2.0 0.00 0.28 0.00 95 1013.2
20260901064502 71 253 0.0 2.0 0.00 0.28 0.00 94 1013.3
20260901064046 71 233 0.0 0.0 0.00 0.28 0.00 95 1013.4
20260901063527 71 233 0.0 0.0 0.00 0.28 0.00 95 1013.4
20260901063006 71 233 0.0 0.0 0.00 0.28 0.00 95 1013.5
20260901062550 71 233 0.0 0.0 0.00 0.28 0.00 95 1013.7
20260901062030 71 233 0.0 0.0 0.00 0.28 0.00 95 1013.8
20260901061510 71 233 0.0 0.0 0.00 0.28 0.00 95 1013.7
20260901061054 71 233 0.0 0.0 0.00 0.32 0.00 95 1013.8
20260901060534 71 233 0.0 4.0 0.00 0.32 0.00 95 1013.9
20260901060118 71 233 0.0 4.0 0.00 0.32 0.00 95 1014.0
20260901055541 71 233 0.0 2.0 0.00 0.32 0.00 95 1014.2
20260901055019 71 225 0.0 0.0 0.00 0.32 0.00 95 1014.3
20260901054614 71 225 0.0 0.0 0.00 0.32 0.00 95 1014.4
20260901054046 71 225 0.0 2.0 0.00 0.32 0.00 95 1014.3
20260901053521 71 225 0.0 2.0 0.00 0.32 0.00 95 1014.5
20260901053002 71 225 0.0 1.0 0.00 0.32 0.00 95 1014.5
20260901052545 71 225 0.0 1.0 0.00 0.32 0.00 95 1014.5
20260901052025 71 225 0.0 0.0 0.00 0.32 0.00 95 1014.4
20260901051509 71 225 0.0 0.0 0.00 0.32 0.00 95 1014.5
20260901051050 71 225 0.0 0.0 0.00 0.32 0.00 95 1014.4
20260901050530 71 225 0.0 0.0 0.00 0.32 0.00 95 1014.5
20260901050114 71 225 0.0 0.0 0.00 0.32 0.00 95 1014.5
20260901045535 71 225 0.0 0.0 0.00 0.32 0.00 95 1014.5
20260901045015 71 225 0.0 0.0 0.00 0.32 0.00 95 1014.6
20260901044600 71 225 0.0 0.0 0.00 0.32 0.00 95 1014.6
20260901044040 71 225 0.0 0.0 0.00 0.32 0.00 95 1014.5
20260901043520 71 225 0.0 0.0 0.00 0.32 0.00 95 1014.7
20260901043106 71 225 0.0 0.0 0.00 0.32 0.00 95 1014.8
20260901042543 71 225 0.0 0.0 0.00 0.32 0.00 95 1014.9
20260901042023 71 225 0.0 0.0 0.00 0.32 0.00 95 1015.2
20260901041504 71 225 0.0 0.0 0.00 0.32 0.00 95 1015.3
20260901041048 71 225 0.0 0.0 0.00 0.32 0.32 95 1015.2
20260901040529 71 225 0.0 0.0 0.00 0.32 0.32 95 1015.4
20260901040139 71 225 0.0 0.0 0.00 0.32 0.32 95 1015.3
20260901035534 71 225 0.0 0.0 0.00 0.32 0.32 95 1015.4
20260901035013 71 225 0.0 0.0 0.00 0.32 0.32 95 1015.4
20260901034558 71 225 0.0 0.0 0.00 0.32 0.32 95 1015.5
20260901034037 71 225 0.0 0.0 0.00 0.32 0.32 95 1015.6
20260901033517 71 225 0.0 0.0 0.00 0.32 0.32 95 1015.6
20260901033120 71 225 0.0 0.0 0.00 0.32 0.32 95 1015.6
20260901032542 71 225 0.0 0.0 0.00 0.32 0.32 95 1015.6
20260901032022 71 225 0.0 0.0 0.00 0.32 0.32 95 1015.7
20260901031505 71 225 0.0 0.0 0.00 0.32 0.32 95 1015.5
20260901031048 71 225 0.0 0.0 0.00 0.32 0.32 95 1015.6
20260901030525 71 225 0.0 0.0 0.00 0.32 0.32 95 1015.7
20260901030110 71 225 0.0 0.0 0.00 0.32 0.32 95 1015.8
20260901025534 71 225 0.0 0.0 0.00 0.32 0.32 95 1015.8
20260901025012 71 225 0.0 0.0 0.00 0.32 0.32 95 1015.7
20260901024559 71 225 0.0 0.0 0.00 0.32 0.32 95 1015.8
20260901024036 71 225 0.0 0.0 0.00 0.32 0.32 95 1015.8
20260901023517 71 225 0.0 0.0 0.00 0.32 0.32 95 1016.0
20260901023100 71 225 0.0 0.0 0.00 0.32 0.32 95 1016.1
20260901022539 71 225 0.0 0.0 0.00 0.32 0.32 95 1016.1
20260901022022 71 225 0.0 0.0 0.00 0.32 0.32 95 1015.9
20260901021605 72 225 0.0 0.0 0.00 0.32 0.32 95 1016.1
20260901021044 72 225 0.0 0.0 0.00 0.32 0.32 95 1016.1
20260901020525 72 225 0.0 0.0 0.00 0.32 0.32 95 1016.1
20260901020108 72 225 0.0 0.0 0.00 0.32 0.32 95 1016.2
20260901015529 72 225 0.0 0.0 0.00 0.32 0.32 95 1016.2
20260901015011 72 225 0.0 0.0 0.00 0.32 0.32 95 1016.2
20260901014554 72 225 0.0 0.0 0.00 0.32 0.32 95 1016.1
20260901014036 72 225 0.0 0.0 0.00 0.32 0.32 95 1016.2
20260901013519 72 225 0.0 0.0 0.00 0.32 0.32 95 1016.1
20260901013100 72 225 0.0 0.0 0.00 0.32 0.32 95 1016.2
20260901012537 72 225 0.0 0.0 0.00 0.32 0.32 95 1016.2
20260901012020 72 225 0.0 0.0 0.00 0.32 0.32 95 1016.2
20260901011603 72 225 0.0 0.0 0.00 0.32 0.32 95 1016.5
20260901011041 72 225 0.0 0.0 0.00 0.32 0.32 95 1016.5
20260901010521 72 225 0.0 0.0 0.00 0.32 0.32 94 1016.4
20260901010108 72 225 0.0 0.0 0.00 0.32 0.32 94 1016.6
20260901005528 72 225 0.0 0.0 0.00 0.32 0.32 94 1016.7
20260901005007 72 225 0.0 2.0 0.00 0.32 0.32 94 1016.4
20260901004551 72 225 0.0 2.0 0.00 0.32 0.32 94 1016.5
20260901004032 73 225 0.0 0.0 0.00 0.32 0.32 94 1016.2
20260901003511 72 225 0.0 0.0 0.00 0.32 0.32 94 1016.1
20260901003055 72 225 0.0 0.0 0.00 0.32 0.32 94 1016.0
20260901002535 73 225 0.0 0.0 0.00 0.32 0.32 94 1016.0
20260901002019 73 225 0.0 0.0 0.00 0.32 0.32 94 1016.0
20260901001606 73 225 0.0 0.0 0.00 0.32 0.32 94 1016.0
20260901001039 73 225 0.0 0.0 0.00 0.32 0.32 94 1016.0
20260901000525 73 225 0.0 0.0 0.00 0.32 0.32 94 1015.9
20260901000106 73 225 0.0 1.0 0.00 0.32 0.32 94 1016.0
20260831235525 73 225 0.0 0.0 0.00 0.32 0.32 94 1016.0
20260831235006 73 225 0.0 0.0 0.00 0.32 0.32 94 1016.0
20260831234550 73 225 0.0 0.0 0.00 0.32 0.32 94 1016.0
20260831234034 73 225 0.0 0.0 0.00 0.32 0.32 94 1015.9
20260831233509 74 225 0.0 0.0 0.00 0.32 0.32 94 1015.9
20260831233053 74 225 0.0 0.0 0.00 0.32 0.32 94 1016.0
20260831232533 74 225 0.0 0.0 0.00 0.32 0.32 94 1015.9
20260831232014 74 225 0.0 0.0 0.00 0.32 0.32 94 1016.0
20260831231602 74 225 0.0 0.0 0.00 0.32 0.32 94 1016.1
20260831231037 74 225 0.0 0.0 0.00 0.32 0.32 94 1015.9
20260831230517 74 225 0.0 0.0 0.00 0.32 0.32 94 1015.9
20260831230139 74 225 0.0 0.0 0.00 0.32 0.32 94 1016.0
20260831225523 74 225 0.0 0.0 0.00 0.32 0.32 94 1016.0